Location: Asheville, NC
(35.6000°N, 82.5500°W)
Time: 07:10:30
(UTC-04:00)

Vanguard 2 - Pass Details

Date: 10 February 2018
Orbit: 552 x 2940 km, 32.9° (Epoch: 20 May)

Event Time Altitude Azimuth Distance (km) Brightness Sun altitude
Rises 01:18:45 0° 272° (W) 2,710 - -67.4°
Reaches altitude 10° 01:20:54 10° 264° (W) 1,843 - -67.2°
Maximum altitude 01:24:43 43° 192° (SSW) 888 - -66.9°
Drops below altitude 10° 01:29:37 10° 122° (ESE) 2,366 - -66.5°
Sets 01:32:44 0° 116° (ESE) 3,603 - -66.1°
